sat.trackr.live / text

‹ back to catalog

STARLINK-37708

NORAD 69469 · 2026-127AC

PAYLOAD ACTIVE UNKNOWN

§ Identity

Operator
Country
US
Launch date
2026-06-08
Launch site
AFETR
Launch vehicle
Mass (kg)
RCS (m²)

Purposes: comms

External: N2YO · Heavens-Above · Gunter

§ Orbital elements

Epoch: 2026-09-20T03:01:27.765984Z

Period
93.85 min
Inclination
53.1585°
Eccentricity
0.0001309
Mean motion
15.34405913 rev/d
Perigee alt
461.8 km
Apogee alt
463.6 km
Semi-major
6,840.8 km
B*
3.7679e-4
RAAN
167.5308°
Arg perigee
101.9754°
Mean anomaly
258.1396°
Rev number
1,613

§ Raw data

STARLINK-377081 69469U 26127AC  26263.12601581  .00012378  00000+0  37679-3 0  99902 69469  53.1585 167.5308 0001309 101.9754 258.1396 15.34405913 16133

JSON: /api/v1/satellites/69469 · /tle

For live sub-satellite position, see the globe view (requires WebGL).

§ Visibility from observer

Set your observer location to see the next 7 days of passes ≥ 10°. The values pass through the URL so the page stays shareable.

No JS? Fill the form by hand. The geolocation button needs JavaScript.